カタログに戻る

STARLINK-1549

運用中通信VLEO
NORAD 46074·PAYLOAD·🇺🇸 United States

打ち上げ Aug 7, 2020 から Cape Canaveral Space Force Station

Loading…

次のパス (今後24時間)

TLE

最新Source: CelesTrak SupGP

元期: Sep 14, 2026, 21:18 UTC

1 46074C 20055AZ  26257.88798611  .00040266  00000+0  10142-2 0  2577
2 46074  53.0460 297.7811 0003659   9.4029 340.7247 15.39300900    11

AllMySatでSTARLINK-1549をリアルタイム追跡

Download on the App Store